Istanbul, Turkey

12:58 PM +03 on June 28, 2017 (GMT +0300)
Ataturk

Weather History for LTBA - March, 2014

Change the Weather History Date:

Thursday, March 13, 2014

  Actual Average Record
Temperature  
Mean Temperature 46 °F -  
Max Temperature 52 °F 54 °F 66 °F (2001)
Min Temperature 39 °F 42 °F 32 °F (2011)
Degree Days  
Heating Degree Days 20    
Moisture  
Dew Point 36 °F    
Average Humidity 67    
Maximum Humidity 87    
Minimum Humidity 41    
Precipitation  
Precipitation 0.00 in - - ()
Sea Level Pressure  
Sea Level Pressure 30.30 in    
Wind  
Wind Speed 10 mph ()    
Max Wind Speed 20 mph    
Max Gust Speed -    
Visibility 6.1 miles    
Events      
Averages and records for this station are not official NWS values.
T = Trace of Precipitation, MM = Missing Value Source: Averaged Metar Reports

Daily Weather History Graph

Daily Weather History Graph

Search for Another Location

Airport or City:

Trip Planner

Search our weather history database for the weather conditions in past years. The results will help you decide how hot, cold, wet, or windy it might be!

Date:

Astronomy

Mar. 13, 2014 Rise Set
Actual Time 6:20 AM EET 6:08 PM EET
Civil Twilight 5:52 AM EET 6:36 PM EET
Nautical Twilight 5:21 AM EET 7:08 PM EET
Astronomical Twilight 4:48 AM EET 7:40 PM EET
Moon 3:15 PM EET (3/13) 4:16 AM EET (3/13)
Length of Visible Light 12h 43m
Length of Day
11h 48m
Waxing Gibbous, 90% of the Moon is Illuminated
Mar 13
Waxing Gibbous
Mar 16
Full
Mar 24
Last Quarter
Mar 30
New
Apr 7
First Quarter

Hourly Weather History & Observations

Time (EET) Temp. Windchill Dew Point Humidity Pressure Visibility Wind Dir Wind Speed Gust Speed Precip Events Conditions
12:20 AM 41.0 °F 35.8 °F 37.4 °F 87% 30.24 in - NNW 8.1 mph - N/A   Clear
12:50 AM 42.8 °F 37.5 °F 37.4 °F 81% 30.24 in - NNW 9.2 mph - N/A   Clear
1:20 AM 42.8 °F 37.5 °F 37.4 °F 81% 30.24 in - NNW 9.2 mph - N/A   Clear
1:50 AM 41.0 °F 35.2 °F 37.4 °F 87% 30.24 in - NNW 9.2 mph - N/A   Clear
2:00 AM 42 °F - 36 °F 73% 30.27 in 6 mi NNW 9.2 mph - -  
2:20 AM 39.2 °F 34.2 °F 35.6 °F 87% 30.24 in - NW 6.9 mph - N/A   Clear
2:50 AM 41.0 °F 35.2 °F 35.6 °F 81% 30.24 in - NW 9.2 mph - N/A   Clear
3:20 AM 41.0 °F 34.7 °F 33.8 °F 76% 30.24 in - NW 10.4 mph - N/A   Clear
3:50 AM 41.0 °F 34.7 °F 33.8 °F 76% 30.24 in - NW 10.4 mph - N/A   Clear
4:20 AM 41.0 °F 34.3 °F 33.8 °F 76% 30.24 in - NNW 11.5 mph - N/A   Clear
4:50 AM 42.8 °F 35.4 °F 32.0 °F 66% 30.24 in - NW 15.0 mph - N/A   Clear
5:00 AM 42 °F - 33 °F 60% 30.27 in 6 mi NW 15.0 mph - -   Partly Cloudy
5:20 AM 41.0 °F 33.5 °F 33.8 °F 76% 30.24 in - NW 13.8 mph - N/A   Clear
5:50 AM 41.0 °F 33.5 °F 33.8 °F 76% 30.24 in - NNW 13.8 mph - N/A   Clear
6:20 AM 41.0 °F 33.9 °F 35.6 °F 81% 30.27 in - NW 12.7 mph - N/A   Clear
6:50 AM 41.0 °F 33.5 °F 37.4 °F 87% 30.27 in - NNW 13.8 mph - N/A   Clear
7:20 AM 42.8 °F 36.2 °F 39.2 °F 87% 30.27 in - NNW 12.7 mph - N/A   Clear
7:50 AM 44.6 °F 39.2 °F 39.2 °F 81% 30.30 in - NNW 10.4 mph - N/A   Clear
8:00 AM 45 °F - 40 °F 77% 30.31 in 6 mi NNW 10.4 mph - -  
8:20 AM 46.4 °F 41.1 °F 41.0 °F 81% 30.30 in - North 11.5 mph - N/A   Clear
8:50 AM 48.2 °F - 37.4 °F 66% 30.30 in - North 13.8 mph - N/A   Clear
9:20 AM 51.8 °F - 33.8 °F 50% 30.30 in 6.2 mi North 17.3 mph - N/A   Partly Cloudy
9:50 AM 50.0 °F - 35.6 °F 58% 30.30 in 6.2 mi North 19.6 mph - N/A   Scattered Clouds
10:20 AM 48.2 °F - 33.8 °F 58% 30.30 in 6.2 mi North 19.6 mph - N/A   Scattered Clouds
10:50 AM 50.0 °F - 35.6 °F 58% 30.30 in 6.2 mi North 16.1 mph - N/A   Scattered Clouds
11:00 AM 50 °F - 34 °F 41% 30.33 in 6 mi North 16.1 mph - -   Partly Cloudy
11:20 AM 50.0 °F - 35.6 °F 58% 30.33 in 6.2 mi North 16.1 mph - N/A   Scattered Clouds
11:50 AM 50.0 °F - 37.4 °F 62% 30.33 in 6.2 mi North 17.3 mph - N/A   Scattered Clouds
12:20 PM 50.0 °F - 35.6 °F 58% 30.33 in 6.2 mi North 17.3 mph - N/A   Scattered Clouds
12:50 PM 50.0 °F - 35.6 °F 58% 30.33 in 6.2 mi North 16.1 mph - N/A   Scattered Clouds
1:20 PM 50.0 °F - 35.6 °F 58% 30.30 in 6.2 mi North 17.3 mph - N/A   Scattered Clouds
1:50 PM 48.2 °F - 35.6 °F 62% 30.30 in 6.2 mi North 16.1 mph - N/A   Scattered Clouds
2:00 PM 48 °F - 35 °F 50% 30.33 in 6 mi North 16.1 mph - -   Partly Cloudy
2:20 PM 50.0 °F - 35.6 °F 58% 30.33 in 6.2 mi North 13.8 mph - N/A   Scattered Clouds
2:50 PM 50.0 °F - 32.0 °F 50% 30.30 in 6.2 mi North 17.3 mph - N/A   Scattered Clouds
3:20 PM 50.0 °F - 28.4 °F 43% 30.30 in 6.2 mi NNE 12.7 mph - N/A   Scattered Clouds
3:50 PM 48.2 °F - 30.2 °F 50% 30.33 in 6.2 mi NNE 13.8 mph - N/A   Scattered Clouds
4:20 PM 48.2 °F - 30.2 °F 50% 30.33 in 6.2 mi NNE 15.0 mph - N/A   Scattered Clouds
4:50 PM 48.2 °F - 32.0 °F 54% 30.33 in 6.2 mi NNE 12.7 mph - N/A   Partly Cloudy
5:00 PM 48 °F - 32 °F 43% 30.34 in 6 mi NNE 12.7 mph - -   Scattered Clouds
5:20 PM 48.2 °F - 32.0 °F 54% 30.33 in 6.2 mi North 11.5 mph - N/A   Partly Cloudy
5:50 PM 48.2 °F - 32.0 °F 54% 30.33 in 6.2 mi NE 8.1 mph - N/A   Partly Cloudy
6:20 PM 46.4 °F 41.9 °F 35.6 °F 66% 30.33 in 6.2 mi NNE 9.2 mph - N/A   Partly Cloudy
6:50 PM 46.4 °F 44.3 °F 35.6 °F 66% 30.33 in 6.2 mi NE 4.6 mph - N/A   Partly Cloudy
7:20 PM 46.4 °F 44.3 °F 37.4 °F 71% 30.33 in 6.2 mi Variable 4.6 mph - N/A   Partly Cloudy
7:50 PM 46.4 °F 44.3 °F 37.4 °F 71% 30.33 in - NNE 4.6 mph - N/A   Clear
8:00 PM 46 °F - 39 °F 67% 30.35 in 6 mi NNE 4.6 mph - -  
8:20 PM 46.4 °F - 37.4 °F 71% 30.33 in - Variable 2.3 mph - N/A   Clear
8:50 PM 44.6 °F - 37.4 °F 76% 30.33 in - Variable 2.3 mph - N/A   Clear
9:20 PM 46.4 °F 44.3 °F 37.4 °F 71% 30.33 in - ESE 4.6 mph - N/A   Clear
9:50 PM 44.6 °F 43.1 °F 37.4 °F 76% 30.33 in - East 3.5 mph - N/A   Clear
10:20 PM 44.6 °F 43.1 °F 37.4 °F 76% 30.33 in - East 3.5 mph - N/A   Clear
10:50 PM 44.6 °F - 37.4 °F 76% 30.33 in - Variable 2.3 mph - N/A   Clear
11:00 PM 44 °F - 37 °F 70% 30.36 in 6 mi East 2.3 mph - -  
11:20 PM 44.6 °F - 37.4 °F 76% 30.33 in - Variable 2.3 mph - N/A   Clear
11:50 PM 44.6 °F - 37.4 °F 76% 30.33 in - Variable 2.3 mph - N/A   Clear